7 * 24
多渠道服务支持
GOES 4是美国(US)于1980年9月9日08:00发射的地球静止环境业务卫星,隶属于GOES系列气象卫星星座。该卫星主要承担北美洲及周边区域的气象观测、数据收集和空间环境监测任务,为气象预报提供云图、大气温湿度等关键观测数据。它被部署在地球静止轨道,具备对天气系统持续监测能力,支撑了当时飓风、暴雨等灾害性天气的预警工作,是美国第二代静止气象卫星的重要成员,服役期间提升了中长期气象预报的准确性。
美国
(US)
| 数据来源 | 国际轨道数据 |
| 星历时间: | 2026-07-26T23:09:08+0800 1天前 查看轨道信息 |
| 半长轴: | 42458.85km |
| 偏心率: | 0.003211 |
| 轨道倾角: | 7.900° |
| 近地点辐角 | 110.864° |
| 升交点赤经 | 302.720° |
| 平近点角 | 244.961° |
| 近地点: | 35944.377km |
| 远地点: | 36217.049km |
| 周期: | 1451.149分钟 |
| 每日圈数: | 0.992317 |